owner,sensor,date,latitude,longitude,vertical_datum,sea_water_temperature,qcFlag
BP,ioos:station:wmo:42880:2,2022-02-18T16:40:00Z,0.0000,0.0000,11.1,22.3,11111222
BP,ioos:station:wmo:42880:2,2022-02-18T17:10:00Z,0.0000,0.0000,11.0,22.4,11111222
BP,ioos:station:wmo:42880:2,2022-02-18T17:20:00Z,0.0000,0.0000,11.0,22.4,11111222
BP,ioos:station:wmo:42880:2,2022-02-18T17:30:00Z,0.0000,0.0000,10.9,22.4,11111222
BP,ioos:station:wmo:42880:2,2022-02-18T17:40:00Z,0.0000,0.0000,11.0,22.4,11111222
BP,ioos:station:wmo:42880:2,2022-02-18T17:50:00Z,0.0000,0.0000,10.9,22.4,11111222
BP,ioos:station:wmo:42880:2,2022-02-18T18:00:00Z,0.0000,0.0000,10.9,22.4,11111222
BP,ioos:station:wmo:42880:2,2022-02-18T18:10:00Z,0.0000,0.0000,10.9,22.4,11111222
BP,ioos:station:wmo:42880:2,2022-02-18T18:20:00Z,0.0000,0.0000,10.9,22.4,11111222
BP,ioos:station:wmo:42880:2,2022-02-18T18:30:00Z,0.0000,0.0000,10.9,22.4,11111222
BP,ioos:station:wmo:42880:2,2022-02-18T18:40:00Z,0.0000,0.0000,10.9,22.4,11111222
BP,ioos:station:wmo:42880:2,2022-02-18T18:50:00Z,0.0000,0.0000,10.9,22.4,11111222
BP,ioos:station:wmo:42880:2,2022-02-18T19:00:00Z,0.0000,0.0000,10.9,22.4,11111222
BP,ioos:station:wmo:42880:2,2022-02-18T19:10:00Z,0.0000,0.0000,10.9,22.4,11111222
BP,ioos:station:wmo:42880:2,2022-02-18T19:20:00Z,0.0000,0.0000,10.8,22.4,11111222
BP,ioos:station:wmo:42880:2,2022-02-18T19:30:00Z,0.0000,0.0000,10.8,22.4,11111222
BP,ioos:station:wmo:42880:2,2022-02-18T19:40:00Z,0.0000,0.0000,10.9,22.4,11111222
BP,ioos:station:wmo:42880:2,2022-02-18T19:50:00Z,0.0000,0.0000,10.8,22.4,11111222
BP,ioos:station:wmo:42880:2,2022-02-18T20:00:00Z,0.0000,0.0000,10.8,22.4,11111222
BP,ioos:station:wmo:42880:2,2022-02-18T20:10:00Z,0.0000,0.0000,11.0,22.4,11111222
BP,ioos:station:wmo:42880:2,2022-02-18T20:20:00Z,0.0000,0.0000,11.0,22.4,11111222
BP,ioos:station:wmo:42880:2,2022-02-18T20:30:00Z,0.0000,0.0000,11.0,22.4,11111222
BP,ioos:station:wmo:42880:2,2022-02-18T20:40:00Z,0.0000,0.0000,11.0,22.4,11111222
BP,ioos:station:wmo:42880:2,2022-02-18T20:50:00Z,0.0000,0.0000,11.0,22.3,11111222
BP,ioos:station:wmo:42880:2,2022-02-18T21:00:00Z,0.0000,0.0000,11.0,22.3,11111222
BP,ioos:station:wmo:42880:2,2022-02-18T21:38:00Z,0.0000,0.0000,10.9,22.3,11111222
BP,ioos:station:wmo:42880:2,2022-02-18T21:48:00Z,0.0000,0.0000,10.9,22.3,11111222
BP,ioos:station:wmo:42880:2,2022-02-18T21:58:00Z,0.0000,0.0000,10.9,22.3,11111222
BP,ioos:station:wmo:42880:2,2022-02-18T22:21:00Z,0.0000,0.0000,10.8,22.3,11111222
BP,ioos:station:wmo:42880:2,2022-02-18T22:31:00Z,0.0000,0.0000,10.9,22.3,11111222
BP,ioos:station:wmo:42880:2,2022-02-18T22:41:00Z,0.0000,0.0000,11.0,22.3,11111222
BP,ioos:station:wmo:42880:2,2022-02-18T22:51:00Z,0.0000,0.0000,11.1,22.3,11111222
BP,ioos:station:wmo:42880:2,2022-02-18T23:01:00Z,0.0000,0.0000,10.8,22.3,11111222
BP,ioos:station:wmo:42880:2,2022-02-18T23:11:00Z,0.0000,0.0000,11.0,22.3,11111222
BP,ioos:station:wmo:42880:2,2022-02-18T23:21:00Z,0.0000,0.0000,11.2,22.3,11111222
BP,ioos:station:wmo:42880:2,2022-02-18T23:31:00Z,0.0000,0.0000,11.1,22.3,11111222
BP,ioos:station:wmo:42880:2,2022-02-18T23:41:00Z,0.0000,0.0000,11.0,22.3,11111222
BP,ioos:station:wmo:42880:2,2022-02-18T23:51:00Z,0.0000,0.0000,10.9,22.3,11111222
BP,ioos:station:wmo:42880:2,2022-02-19T00:01:00Z,0.0000,0.0000,10.8,22.3,11111222
BP,ioos:station:wmo:42880:2,2022-02-19T00:11:00Z,0.0000,0.0000,10.8,22.3,11111222
BP,ioos:station:wmo:42880:2,2022-02-19T00:21:00Z,0.0000,0.0000,10.9,22.2,11111222
BP,ioos:station:wmo:42880:2,2022-02-19T00:31:00Z,0.0000,0.0000,10.8,22.2,11111222
BP,ioos:station:wmo:42880:2,2022-02-19T00:41:00Z,0.0000,0.0000,10.8,22.1,11111222
BP,ioos:station:wmo:42880:2,2022-02-19T00:51:00Z,0.0000,0.0000,11.0,22.1,11111222
BP,ioos:station:wmo:42880:2,2022-02-19T01:01:00Z,0.0000,0.0000,11.0,22.0,11111222
BP,ioos:station:wmo:42880:2,2022-02-19T01:11:00Z,0.0000,0.0000,10.9,21.9,11111222
BP,ioos:station:wmo:42880:2,2022-02-19T01:21:00Z,0.0000,0.0000,10.9,21.9,11111222
BP,ioos:station:wmo:42880:2,2022-02-19T01:31:00Z,0.0000,0.0000,11.0,21.9,11111222
BP,ioos:station:wmo:42880:2,2022-02-19T01:41:00Z,0.0000,0.0000,11.1,22.0,11111222
BP,ioos:station:wmo:42880:2,2022-02-19T01:51:00Z,0.0000,0.0000,11.1,21.9,11111222
BP,ioos:station:wmo:42880:2,2022-02-19T02:01:00Z,0.0000,0.0000,11.1,22.0,11111222
BP,ioos:station:wmo:42880:2,2022-02-19T02:11:00Z,0.0000,0.0000,11.1,22.1,11111222
BP,ioos:station:wmo:42880:2,2022-02-19T02:21:00Z,0.0000,0.0000,11.1,22.1,11111222
BP,ioos:station:wmo:42880:2,2022-02-19T02:31:00Z,0.0000,0.0000,11.1,22.2,11111222
BP,ioos:station:wmo:42880:2,2022-02-19T02:41:00Z,0.0000,0.0000,11.1,22.3,11111222
BP,ioos:station:wmo:42880:2,2022-02-19T02:51:00Z,0.0000,0.0000,11.1,22.3,11111222
BP,ioos:station:wmo:42880:2,2022-02-19T03:01:00Z,0.0000,0.0000,11.1,22.3,11111222
BP,ioos:station:wmo:42880:2,2022-02-19T03:11:00Z,0.0000,0.0000,11.1,22.3,11111222
BP,ioos:station:wmo:42880:2,2022-02-19T03:21:00Z,0.0000,0.0000,11.1,22.3,11111222
BP,ioos:station:wmo:42880:2,2022-02-19T03:31:00Z,0.0000,0.0000,11.1,22.4,11111222
BP,ioos:station:wmo:42880:2,2022-02-19T03:41:00Z,0.0000,0.0000,11.1,22.4,11111222
BP,ioos:station:wmo:42880:2,2022-02-19T03:51:00Z,0.0000,0.0000,11.1,22.4,11111222
BP,ioos:station:wmo:42880:2,2022-02-19T04:01:00Z,0.0000,0.0000,11.1,22.5,11111222
BP,ioos:station:wmo:42880:2,2022-02-19T04:11:00Z,0.0000,0.0000,11.1,22.5,11111222
BP,ioos:station:wmo:42880:2,2022-02-19T04:21:00Z,0.0000,0.0000,11.1,22.5,11111222
BP,ioos:station:wmo:42880:2,2022-02-19T04:31:00Z,0.0000,0.0000,10.9,22.5,11111222
BP,ioos:station:wmo:42880:2,2022-02-19T04:41:00Z,0.0000,0.0000,11.0,22.6,11111222
BP,ioos:station:wmo:42880:2,2022-02-19T04:51:00Z,0.0000,0.0000,11.0,22.6,11111222
BP,ioos:station:wmo:42880:2,2022-02-19T05:01:00Z,0.0000,0.0000,10.9,22.6,11111222
BP,ioos:station:wmo:42880:2,2022-02-19T05:11:00Z,0.0000,0.0000,10.9,22.6,11111222
BP,ioos:station:wmo:42880:2,2022-02-19T05:21:00Z,0.0000,0.0000,10.9,22.6,11111222
BP,ioos:station:wmo:42880:2,2022-02-19T05:31:00Z,0.0000,0.0000,11.1,22.6,11111222
BP,ioos:station:wmo:42880:2,2022-02-19T05:41:00Z,0.0000,0.0000,11.1,22.6,11111222
BP,ioos:station:wmo:42880:2,2022-02-19T05:51:00Z,0.0000,0.0000,11.1,22.6,11111222
BP,ioos:station:wmo:42880:2,2022-02-19T06:01:00Z,0.0000,0.0000,11.1,22.5,11111222
BP,ioos:station:wmo:42880:2,2022-02-19T06:11:00Z,0.0000,0.0000,11.1,22.5,11111222
BP,ioos:station:wmo:42880:2,2022-02-19T06:21:00Z,0.0000,0.0000,11.1,22.5,11111222
BP,ioos:station:wmo:42880:2,2022-02-19T06:31:00Z,0.0000,0.0000,11.1,22.5,11111222
BP,ioos:station:wmo:42880:2,2022-02-19T06:41:00Z,0.0000,0.0000,11.1,22.5,11111222
BP,ioos:station:wmo:42880:2,2022-02-19T06:51:00Z,0.0000,0.0000,11.0,22.5,11111222
BP,ioos:station:wmo:42880:2,2022-02-19T07:01:00Z,0.0000,0.0000,11.0,22.4,11111222
BP,ioos:station:wmo:42880:2,2022-02-19T07:11:00Z,0.0000,0.0000,11.0,22.4,11111222
BP,ioos:station:wmo:42880:2,2022-02-19T07:21:00Z,0.0000,0.0000,10.9,22.4,11111222
BP,ioos:station:wmo:42880:2,2022-02-19T07:31:00Z,0.0000,0.0000,11.0,22.4,11111222
BP,ioos:station:wmo:42880:2,2022-02-19T07:41:00Z,0.0000,0.0000,11.1,22.4,11111222
BP,ioos:station:wmo:42880:2,2022-02-19T07:51:00Z,0.0000,0.0000,11.0,22.4,11111222
BP,ioos:station:wmo:42880:2,2022-02-19T08:01:00Z,0.0000,0.0000,11.0,22.4,11111222
BP,ioos:station:wmo:42880:2,2022-02-19T08:11:00Z,0.0000,0.0000,11.1,22.4,11111222
BP,ioos:station:wmo:42880:2,2022-02-19T08:21:00Z,0.0000,0.0000,11.1,22.4,11111222
BP,ioos:station:wmo:42880:2,2022-02-19T08:31:00Z,0.0000,0.0000,11.1,22.4,11111222
BP,ioos:station:wmo:42880:2,2022-02-19T08:41:00Z,0.0000,0.0000,11.1,22.4,11111222
BP,ioos:station:wmo:42880:2,2022-02-19T08:51:00Z,0.0000,0.0000,11.1,22.4,11111222
BP,ioos:station:wmo:42880:2,2022-02-19T09:01:00Z,0.0000,0.0000,11.1,22.4,11111222
BP,ioos:station:wmo:42880:2,2022-02-19T09:11:00Z,0.0000,0.0000,11.1,22.4,11111222
BP,ioos:station:wmo:42880:2,2022-02-19T09:21:00Z,0.0000,0.0000,11.1,22.4,11111222
BP,ioos:station:wmo:42880:2,2022-02-19T09:31:00Z,0.0000,0.0000,11.1,22.4,11111222
BP,ioos:station:wmo:42880:2,2022-02-19T09:41:00Z,0.0000,0.0000,11.1,22.3,11111222
BP,ioos:station:wmo:42880:2,2022-02-19T09:51:00Z,0.0000,0.0000,11.1,22.3,11111222
BP,ioos:station:wmo:42880:2,2022-02-19T10:01:00Z,0.0000,0.0000,11.1,22.3,11111222
BP,ioos:station:wmo:42880:2,2022-02-19T10:11:00Z,0.0000,0.0000,11.2,22.3,11111222
BP,ioos:station:wmo:42880:2,2022-02-19T10:21:00Z,0.0000,0.0000,11.2,22.3,11111222
BP,ioos:station:wmo:42880:2,2022-02-19T10:31:00Z,0.0000,0.0000,11.1,22.3,11111222
BP,ioos:station:wmo:42880:2,2022-02-19T10:41:00Z,0.0000,0.0000,11.1,22.3,11111222
BP,ioos:station:wmo:42880:2,2022-02-19T10:51:00Z,0.0000,0.0000,11.1,22.3,11111222
BP,ioos:station:wmo:42880:2,2022-02-19T11:01:00Z,0.0000,0.0000,11.1,22.3,11111222
BP,ioos:station:wmo:42880:2,2022-02-19T11:11:00Z,0.0000,0.0000,11.1,22.3,11111222
BP,ioos:station:wmo:42880:2,2022-02-19T11:21:00Z,0.0000,0.0000,11.1,22.3,11111222
BP,ioos:station:wmo:42880:2,2022-02-19T11:31:00Z,0.0000,0.0000,11.0,22.3,11111222
BP,ioos:station:wmo:42880:2,2022-02-19T11:41:00Z,0.0000,0.0000,11.0,22.3,11111222
BP,ioos:station:wmo:42880:2,2022-02-19T11:51:00Z,0.0000,0.0000,11.0,22.3,11111222
BP,ioos:station:wmo:42880:2,2022-02-19T12:01:00Z,0.0000,0.0000,11.0,22.2,11111222
BP,ioos:station:wmo:42880:2,2022-02-19T12:11:00Z,0.0000,0.0000,11.0,22.2,11111222
BP,ioos:station:wmo:42880:2,2022-02-19T12:21:00Z,0.0000,0.0000,11.0,22.2,11111222
BP,ioos:station:wmo:42880:2,2022-02-19T12:31:00Z,0.0000,0.0000,11.0,22.2,11111222
BP,ioos:station:wmo:42880:2,2022-02-19T12:41:00Z,0.0000,0.0000,11.0,22.2,11111222
BP,ioos:station:wmo:42880:2,2022-02-19T12:51:00Z,0.0000,0.0000,11.0,22.2,11111222
BP,ioos:station:wmo:42880:2,2022-02-19T13:01:00Z,0.0000,0.0000,11.0,22.1,11111222
BP,ioos:station:wmo:42880:2,2022-02-19T13:11:00Z,0.0000,0.0000,11.0,22.1,11111222
BP,ioos:station:wmo:42880:2,2022-02-19T13:21:00Z,0.0000,0.0000,11.0,22.1,11111222
BP,ioos:station:wmo:42880:2,2022-02-19T13:31:00Z,0.0000,0.0000,11.0,22.1,11111222
BP,ioos:station:wmo:42880:2,2022-02-19T13:41:00Z,0.0000,0.0000,11.0,22.1,11111222
BP,ioos:station:wmo:42880:2,2022-02-19T13:51:00Z,0.0000,0.0000,11.0,22.1,11111222
BP,ioos:station:wmo:42880:2,2022-02-19T14:01:00Z,0.0000,0.0000,11.0,22.1,11111222
BP,ioos:station:wmo:42880:2,2022-02-19T14:11:00Z,0.0000,0.0000,11.0,22.1,11111222
BP,ioos:station:wmo:42880:2,2022-02-19T14:21:00Z,0.0000,0.0000,11.1,22.1,11111222
BP,ioos:station:wmo:42880:2,2022-02-19T14:31:00Z,0.0000,0.0000,11.0,22.1,11111222
BP,ioos:station:wmo:42880:2,2022-02-19T14:41:00Z,0.0000,0.0000,11.0,22.1,11111222
BP,ioos:station:wmo:42880:2,2022-02-19T14:51:00Z,0.0000,0.0000,11.1,22.1,11111222
BP,ioos:station:wmo:42880:2,2022-02-19T15:01:00Z,0.0000,0.0000,11.1,22.1,11111222
BP,ioos:station:wmo:42880:2,2022-02-19T15:11:00Z,0.0000,0.0000,11.1,22.1,11111222
BP,ioos:station:wmo:42880:2,2022-02-19T15:21:00Z,0.0000,0.0000,11.1,22.1,11111222
BP,ioos:station:wmo:42880:2,2022-02-19T15:31:00Z,0.0000,0.0000,11.1,22.1,11111222
BP,ioos:station:wmo:42880:2,2022-02-19T15:41:00Z,0.0000,0.0000,11.1,22.1,11111222
BP,ioos:station:wmo:42880:2,2022-02-19T15:51:00Z,0.0000,0.0000,11.1,22.1,11111222
BP,ioos:station:wmo:42880:2,2022-02-19T16:01:00Z,0.0000,0.0000,11.1,22.1,11111222
BP,ioos:station:wmo:42880:2,2022-02-19T16:11:00Z,0.0000,0.0000,11.1,22.1,11111222
BP,ioos:station:wmo:42880:2,2022-02-19T16:21:00Z,0.0000,0.0000,11.1,22.1,11111222
BP,ioos:station:wmo:42880:2,2022-02-19T16:31:00Z,0.0000,0.0000,11.1,22.1,11111222
BP,ioos:station:wmo:42880:2,2022-02-19T16:41:00Z,0.0000,0.0000,11.1,22.1,11111222
BP,ioos:station:wmo:42880:2,2022-02-19T16:51:00Z,0.0000,0.0000,11.1,22.1,11111222
BP,ioos:station:wmo:42880:2,2022-02-19T17:01:00Z,0.0000,0.0000,11.1,22.1,11111222
BP,ioos:station:wmo:42880:2,2022-02-19T17:11:00Z,0.0000,0.0000,11.1,22.1,11111222
BP,ioos:station:wmo:42880:2,2022-02-19T17:21:00Z,0.0000,0.0000,11.0,22.1,11111222
BP,ioos:station:wmo:42880:2,2022-02-19T17:31:00Z,0.0000,0.0000,11.1,22.2,11111222
BP,ioos:station:wmo:42880:2,2022-02-19T17:41:00Z,0.0000,0.0000,11.1,22.2,11111222
BP,ioos:station:wmo:42880:2,2022-02-19T17:51:00Z,0.0000,0.0000,11.1,22.2,11111222
BP,ioos:station:wmo:42880:2,2022-02-19T18:01:00Z,0.0000,0.0000,11.1,22.2,11111222
BP,ioos:station:wmo:42880:2,2022-02-19T18:11:00Z,0.0000,0.0000,11.1,22.2,11111222
BP,ioos:station:wmo:42880:2,2022-02-19T18:21:00Z,0.0000,0.0000,11.1,22.2,11111222
BP,ioos:station:wmo:42880:2,2022-02-19T18:31:00Z,0.0000,0.0000,11.1,22.2,11111222
BP,ioos:station:wmo:42880:2,2022-02-19T18:41:00Z,0.0000,0.0000,11.1,22.2,11111222
BP,ioos:station:wmo:42880:2,2022-02-19T18:51:00Z,0.0000,0.0000,11.1,22.1,11111222
BP,ioos:station:wmo:42880:2,2022-02-19T19:01:00Z,0.0000,0.0000,11.1,22.1,11111222
BP,ioos:station:wmo:42880:2,2022-02-19T19:11:00Z,0.0000,0.0000,11.2,22.1,11111222
BP,ioos:station:wmo:42880:2,2022-02-19T19:21:00Z,0.0000,0.0000,11.1,22.1,11111222
BP,ioos:station:wmo:42880:2,2022-02-19T19:31:00Z,0.0000,0.0000,11.1,22.1,11111222
BP,ioos:station:wmo:42880:2,2022-02-19T19:41:00Z,0.0000,0.0000,11.1,22.1,11111222
BP,ioos:station:wmo:42880:2,2022-02-19T19:51:00Z,0.0000,0.0000,11.2,22.1,11111222
BP,ioos:station:wmo:42880:2,2022-02-19T20:01:00Z,0.0000,0.0000,11.1,22.1,11111222
BP,ioos:station:wmo:42880:2,2022-02-19T20:11:00Z,0.0000,0.0000,11.1,22.1,11111222
BP,ioos:station:wmo:42880:2,2022-02-19T20:21:00Z,0.0000,0.0000,11.1,22.1,11111222
BP,ioos:station:wmo:42880:2,2022-02-19T20:31:00Z,0.0000,0.0000,11.1,22.1,11111222
BP,ioos:station:wmo:42880:2,2022-02-19T20:41:00Z,0.0000,0.0000,11.2,22.1,11111222
BP,ioos:station:wmo:42880:2,2022-02-19T20:51:00Z,0.0000,0.0000,11.3,22.1,11111222
BP,ioos:station:wmo:42880:2,2022-02-19T21:01:00Z,0.0000,0.0000,11.3,22.1,11111222
BP,ioos:station:wmo:42880:2,2022-02-19T21:11:00Z,0.0000,0.0000,11.2,22.1,11111222
BP,ioos:station:wmo:42880:2,2022-02-19T21:21:00Z,0.0000,0.0000,11.1,22.1,11111222
BP,ioos:station:wmo:42880:2,2022-02-19T21:31:00Z,0.0000,0.0000,11.1,22.1,11111222
BP,ioos:station:wmo:42880:2,2022-02-19T21:41:00Z,0.0000,0.0000,11.1,22.2,11111222
BP,ioos:station:wmo:42880:2,2022-02-19T21:51:00Z,0.0000,0.0000,11.1,22.2,11111222
BP,ioos:station:wmo:42880:2,2022-02-19T22:01:00Z,0.0000,0.0000,11.2,22.2,11111222
BP,ioos:station:wmo:42880:2,2022-02-19T22:11:00Z,0.0000,0.0000,11.1,22.2,11111222
BP,ioos:station:wmo:42880:2,2022-02-19T22:21:00Z,0.0000,0.0000,11.1,22.2,11111222
BP,ioos:station:wmo:42880:2,2022-02-19T22:31:00Z,0.0000,0.0000,11.2,22.2,11111222
BP,ioos:station:wmo:42880:2,2022-02-19T22:41:00Z,0.0000,0.0000,11.2,22.2,11111222
BP,ioos:station:wmo:42880:2,2022-02-19T22:51:00Z,0.0000,0.0000,11.1,22.2,11111222
BP,ioos:station:wmo:42880:2,2022-02-19T23:01:00Z,0.0000,0.0000,11.1,22.2,11111222
BP,ioos:station:wmo:42880:2,2022-02-19T23:11:00Z,0.0000,0.0000,11.1,22.2,11111222
BP,ioos:station:wmo:42880:2,2022-02-19T23:21:00Z,0.0000,0.0000,11.1,22.2,11111222
BP,ioos:station:wmo:42880:2,2022-02-19T23:31:00Z,0.0000,0.0000,11.1,22.2,11111222
BP,ioos:station:wmo:42880:2,2022-02-19T23:41:00Z,0.0000,0.0000,11.1,22.1,11111222
BP,ioos:station:wmo:42880:2,2022-02-19T23:51:00Z,0.0000,0.0000,11.1,22.1,11111222
BP,ioos:station:wmo:42880:2,2022-02-20T00:01:00Z,0.0000,0.0000,11.1,22.1,11111222
BP,ioos:station:wmo:42880:2,2022-02-20T00:11:00Z,0.0000,0.0000,11.2,22.1,11111222
BP,ioos:station:wmo:42880:2,2022-02-20T00:21:00Z,0.0000,0.0000,11.1,22.1,11111222
BP,ioos:station:wmo:42880:2,2022-02-20T00:31:00Z,0.0000,0.0000,11.2,22.1,11111222
BP,ioos:station:wmo:42880:2,2022-02-20T00:41:00Z,0.0000,0.0000,11.2,22.1,11111222
BP,ioos:station:wmo:42880:2,2022-02-20T00:51:00Z,0.0000,0.0000,11.2,22.1,11111222
BP,ioos:station:wmo:42880:2,2022-02-20T01:01:00Z,0.0000,0.0000,11.1,22.1,11111222
BP,ioos:station:wmo:42880:2,2022-02-20T01:11:00Z,0.0000,0.0000,11.2,22.1,11111222
BP,ioos:station:wmo:42880:2,2022-02-20T01:21:00Z,0.0000,0.0000,11.1,22.1,11111222
BP,ioos:station:wmo:42880:2,2022-02-20T01:31:00Z,0.0000,0.0000,10.9,22.1,11111222
BP,ioos:station:wmo:42880:2,2022-02-20T01:41:00Z,0.0000,0.0000,10.9,22.1,11111222
BP,ioos:station:wmo:42880:2,2022-02-20T01:51:00Z,0.0000,0.0000,10.9,22.1,11111222
BP,ioos:station:wmo:42880:2,2022-02-20T02:01:00Z,0.0000,0.0000,11.0,22.1,11111222
BP,ioos:station:wmo:42880:2,2022-02-20T02:11:00Z,0.0000,0.0000,11.1,22.1,11111222
BP,ioos:station:wmo:42880:2,2022-02-20T02:21:00Z,0.0000,0.0000,11.1,22.1,11111222
BP,ioos:station:wmo:42880:2,2022-02-20T02:31:00Z,0.0000,0.0000,11.0,22.1,11111222
BP,ioos:station:wmo:42880:2,2022-02-20T02:41:00Z,0.0000,0.0000,11.0,22.1,11111222
BP,ioos:station:wmo:42880:2,2022-02-20T02:51:00Z,0.0000,0.0000,11.0,22.1,11111222
BP,ioos:station:wmo:42880:2,2022-02-20T03:01:00Z,0.0000,0.0000,11.0,22.1,11111222
BP,ioos:station:wmo:42880:2,2022-02-20T03:11:00Z,0.0000,0.0000,11.0,22.2,11111222
BP,ioos:station:wmo:42880:2,2022-02-20T03:21:00Z,0.0000,0.0000,11.0,22.2,11111222
BP,ioos:station:wmo:42880:2,2022-02-20T03:31:00Z,0.0000,0.0000,11.0,22.2,11111222
BP,ioos:station:wmo:42880:2,2022-02-20T03:41:00Z,0.0000,0.0000,11.0,22.3,11111222
BP,ioos:station:wmo:42880:2,2022-02-20T03:51:00Z,0.0000,0.0000,11.0,22.3,11111222
BP,ioos:station:wmo:42880:2,2022-02-20T04:01:00Z,0.0000,0.0000,11.0,22.3,11111222
BP,ioos:station:wmo:42880:2,2022-02-20T04:11:00Z,0.0000,0.0000,11.1,22.3,11111222
BP,ioos:station:wmo:42880:2,2022-02-20T04:21:00Z,0.0000,0.0000,10.9,22.3,11111222
BP,ioos:station:wmo:42880:2,2022-02-20T04:31:00Z,0.0000,0.0000,10.9,22.3,11111222
BP,ioos:station:wmo:42880:2,2022-02-20T04:41:00Z,0.0000,0.0000,10.9,22.3,11111222
BP,ioos:station:wmo:42880:2,2022-02-20T04:51:00Z,0.0000,0.0000,10.9,22.3,11111222
BP,ioos:station:wmo:42880:2,2022-02-20T05:01:00Z,0.0000,0.0000,11.0,22.3,11111222
BP,ioos:station:wmo:42880:2,2022-02-20T05:11:00Z,0.0000,0.0000,11.0,22.3,11111222
BP,ioos:station:wmo:42880:2,2022-02-20T05:21:00Z,0.0000,0.0000,11.0,22.3,11111222
BP,ioos:station:wmo:42880:2,2022-02-20T05:31:00Z,0.0000,0.0000,11.1,22.3,11111222
BP,ioos:station:wmo:42880:2,2022-02-20T05:41:00Z,0.0000,0.0000,10.9,22.3,11111222
BP,ioos:station:wmo:42880:2,2022-02-20T05:51:00Z,0.0000,0.0000,11.1,22.2,11111222
BP,ioos:station:wmo:42880:2,2022-02-20T06:01:00Z,0.0000,0.0000,11.0,22.2,11111222
BP,ioos:station:wmo:42880:2,2022-02-20T06:11:00Z,0.0000,0.0000,11.0,22.2,11111222
BP,ioos:station:wmo:42880:2,2022-02-20T06:21:00Z,0.0000,0.0000,11.0,22.1,11111222
BP,ioos:station:wmo:42880:2,2022-02-20T06:31:00Z,0.0000,0.0000,11.0,22.1,11111222
BP,ioos:station:wmo:42880:2,2022-02-20T06:41:00Z,0.0000,0.0000,11.1,22.1,11111222
BP,ioos:station:wmo:42880:2,2022-02-20T06:51:00Z,0.0000,0.0000,10.9,22.0,11111222
BP,ioos:station:wmo:42880:2,2022-02-20T07:01:00Z,0.0000,0.0000,10.9,22.0,11111222
BP,ioos:station:wmo:42880:2,2022-02-20T07:11:00Z,0.0000,0.0000,11.0,21.9,11111222
BP,ioos:station:wmo:42880:2,2022-02-20T07:21:00Z,0.0000,0.0000,11.0,21.9,11111222
BP,ioos:station:wmo:42880:2,2022-02-20T07:31:00Z,0.0000,0.0000,10.9,21.9,11111222
BP,ioos:station:wmo:42880:2,2022-02-20T07:41:00Z,0.0000,0.0000,10.8,22.0,11111222
BP,ioos:station:wmo:42880:2,2022-02-20T07:51:00Z,0.0000,0.0000,10.8,22.0,11111222
BP,ioos:station:wmo:42880:2,2022-02-20T08:01:00Z,0.0000,0.0000,10.9,22.1,11111222
BP,ioos:station:wmo:42880:2,2022-02-20T08:11:00Z,0.0000,0.0000,10.9,22.1,11111222
BP,ioos:station:wmo:42880:2,2022-02-20T08:21:00Z,0.0000,0.0000,10.8,22.0,11111222
BP,ioos:station:wmo:42880:2,2022-02-20T08:31:00Z,0.0000,0.0000,10.9,22.0,11111222
BP,ioos:station:wmo:42880:2,2022-02-20T08:41:00Z,0.0000,0.0000,10.7,22.0,11111222
BP,ioos:station:wmo:42880:2,2022-02-20T08:51:00Z,0.0000,0.0000,10.8,22.1,11111222
BP,ioos:station:wmo:42880:2,2022-02-20T09:01:00Z,0.0000,0.0000,10.8,22.1,11111222
BP,ioos:station:wmo:42880:2,2022-02-20T09:11:00Z,0.0000,0.0000,10.7,22.1,11111222
BP,ioos:station:wmo:42880:2,2022-02-20T09:21:00Z,0.0000,0.0000,10.8,22.2,11111222
BP,ioos:station:wmo:42880:2,2022-02-20T09:31:00Z,0.0000,0.0000,10.7,22.2,11111222
BP,ioos:station:wmo:42880:2,2022-02-20T09:41:00Z,0.0000,0.0000,10.6,22.2,11111222
BP,ioos:station:wmo:42880:2,2022-02-20T09:51:00Z,0.0000,0.0000,10.7,22.2,11111222
BP,ioos:station:wmo:42880:2,2022-02-20T10:01:00Z,0.0000,0.0000,10.7,22.2,11111222
BP,ioos:station:wmo:42880:2,2022-02-20T10:11:00Z,0.0000,0.0000,10.5,22.2,11111222
BP,ioos:station:wmo:42880:2,2022-02-20T10:21:00Z,0.0000,0.0000,10.7,22.2,11111222
BP,ioos:station:wmo:42880:2,2022-02-20T10:31:00Z,0.0000,0.0000,10.7,22.2,11111222
BP,ioos:station:wmo:42880:2,2022-02-20T10:41:00Z,0.0000,0.0000,10.8,22.2,11111222
BP,ioos:station:wmo:42880:2,2022-02-20T10:51:00Z,0.0000,0.0000,10.8,22.2,11111222
BP,ioos:station:wmo:42880:2,2022-02-20T11:01:00Z,0.0000,0.0000,10.7,22.2,11111222
BP,ioos:station:wmo:42880:2,2022-02-20T11:11:00Z,0.0000,0.0000,10.7,22.2,11111222
BP,ioos:station:wmo:42880:2,2022-02-20T11:21:00Z,0.0000,0.0000,10.5,22.2,11111222
BP,ioos:station:wmo:42880:2,2022-02-20T11:31:00Z,0.0000,0.0000,10.6,22.2,11111222
BP,ioos:station:wmo:42880:2,2022-02-20T11:41:00Z,0.0000,0.0000,10.6,22.3,11111222
BP,ioos:station:wmo:42880:2,2022-02-20T11:51:00Z,0.0000,0.0000,10.7,22.3,11111222
BP,ioos:station:wmo:42880:2,2022-02-20T12:01:00Z,0.0000,0.0000,10.6,22.3,11111222
BP,ioos:station:wmo:42880:2,2022-02-20T12:11:00Z,0.0000,0.0000,10.6,22.3,11111222
BP,ioos:station:wmo:42880:2,2022-02-20T12:21:00Z,0.0000,0.0000,10.7,22.3,11111222
BP,ioos:station:wmo:42880:2,2022-02-20T12:31:00Z,0.0000,0.0000,10.6,22.3,11111222
BP,ioos:station:wmo:42880:2,2022-02-20T12:41:00Z,0.0000,0.0000,10.6,22.3,11111222
BP,ioos:station:wmo:42880:2,2022-02-20T12:51:00Z,0.0000,0.0000,10.6,22.3,11111222
BP,ioos:station:wmo:42880:2,2022-02-20T13:01:00Z,0.0000,0.0000,10.6,22.3,11111222
BP,ioos:station:wmo:42880:2,2022-02-20T13:11:00Z,0.0000,0.0000,10.7,22.3,11111222
BP,ioos:station:wmo:42880:2,2022-02-20T13:21:00Z,0.0000,0.0000,10.7,22.3,11111222
BP,ioos:station:wmo:42880:2,2022-02-20T13:31:00Z,0.0000,0.0000,10.7,22.3,11111222
BP,ioos:station:wmo:42880:2,2022-02-20T13:41:00Z,0.0000,0.0000,10.7,22.3,11111222
BP,ioos:station:wmo:42880:2,2022-02-20T13:51:00Z,0.0000,0.0000,10.5,22.3,11111222
BP,ioos:station:wmo:42880:2,2022-02-20T14:01:00Z,0.0000,0.0000,10.5,22.3,11111222
BP,ioos:station:wmo:42880:2,2022-02-20T14:11:00Z,0.0000,0.0000,10.5,22.3,11111222
BP,ioos:station:wmo:42880:2,2022-02-20T14:21:00Z,0.0000,0.0000,10.6,22.3,11111222
BP,ioos:station:wmo:42880:2,2022-02-20T14:31:00Z,0.0000,0.0000,10.5,22.3,11111222
BP,ioos:station:wmo:42880:2,2022-02-20T14:41:00Z,0.0000,0.0000,10.5,22.3,11111222
BP,ioos:station:wmo:42880:2,2022-02-20T14:51:00Z,0.0000,0.0000,10.4,22.3,11111222
BP,ioos:station:wmo:42880:2,2022-02-20T15:01:00Z,0.0000,0.0000,10.4,22.3,11111222
BP,ioos:station:wmo:42880:2,2022-02-20T15:11:00Z,0.0000,0.0000,10.4,22.3,11111222
BP,ioos:station:wmo:42880:2,2022-02-20T15:21:00Z,0.0000,0.0000,10.4,22.3,11111222
BP,ioos:station:wmo:42880:2,2022-02-20T15:31:00Z,0.0000,0.0000,10.4,22.3,11111222
BP,ioos:station:wmo:42880:2,2022-02-20T15:41:00Z,0.0000,0.0000,10.5,22.3,11111222
BP,ioos:station:wmo:42880:2,2022-02-20T15:51:00Z,0.0000,0.0000,10.5,22.3,11111222
BP,ioos:station:wmo:42880:2,2022-02-20T16:01:00Z,0.0000,0.0000,10.7,22.3,11111222
BP,ioos:station:wmo:42880:2,2022-02-20T16:11:00Z,0.0000,0.0000,10.8,22.3,11111222
BP,ioos:station:wmo:42880:2,2022-02-20T16:21:00Z,0.0000,0.0000,10.9,22.3,11111222
BP,ioos:station:wmo:42880:2,2022-02-20T16:31:00Z,0.0000,0.0000,10.9,22.3,11111222
BP,ioos:station:wmo:42880:2,2022-02-20T16:41:00Z,0.0000,0.0000,10.9,22.3,11111222
BP,ioos:station:wmo:42880:2,2022-02-20T16:51:00Z,0.0000,0.0000,10.9,22.3,11111222
BP,ioos:station:wmo:42880:2,2022-02-20T17:01:00Z,0.0000,0.0000,10.9,22.3,11111222
BP,ioos:station:wmo:42880:2,2022-02-20T17:11:00Z,0.0000,0.0000,10.9,22.3,11111222
BP,ioos:station:wmo:42880:2,2022-02-20T17:21:00Z,0.0000,0.0000,11.0,22.3,11111222
BP,ioos:station:wmo:42880:2,2022-02-20T17:31:00Z,0.0000,0.0000,11.0,22.3,11111222